Location: Hyderabad
(17.3833°N, 78.4667°E)
Time: 05:35:25
(UTC+05:30)

Daily predictions for brighter satellites

Satellite Brightness Start Highest point End
(mag) Time Altitude Azimuth Time Altitude Azimuth Time Altitude Azimuth
SL-16 R/B 4.2 02:19:22 10° NNE 02:23:34 22° ENE 02:23:34 22° ENE
Resurs 1-4 Rocket 4.3 02:19:17 10° NE 02:21:26 22° NE 02:21:26 22° NE
Cosmos 2322 Rocket 3.8 02:31:27 10° N 02:35:11 30° NE 02:35:11 30° NE
SL-16 R/B 4.1 02:37:02 24° ESE 02:39:17 30° ENE 02:44:34 10° NNE
Centaur AC-146 3.9 02:40:19 77° ESE 02:40:19 77° ESE 03:20:09 10° E
CZ-3 Stage 3 4.2 02:32:09 10° WNW 02:53:30 - E 02:49:05 55° N
ARIANE 5 R/B 4.3 03:01:27 10° N 03:03:23 23° N 03:03:23 23° N
Cosmos 1898 Rocket 4.4 03:08:27 44° NNE 03:08:27 44° NNE 03:11:57 10° NNE
Cosmos 2219 3.7 03:09:15 54° NNE 03:09:15 54° NNE 03:13:38 10° NNE
CZ-2D R/B 3.1 03:04:01 10° N 03:07:18 40° N 03:07:18 40° N
Cosmos 1937 Rocket 4.0 03:16:17 58° ENE 03:16:17 58° ENE 03:20:51 10° NNE
CZ-4B R/B 4.1 03:10:58 10° NNE 03:16:10 43° E 03:17:03 40° SE
USA 229 DEB 4.1 03:31:21 45° WNW 03:31:24 45° WNW 03:38:00 10° N
USA 229 4.1 03:31:25 46° WNW 03:31:30 46° WNW 03:38:07 10° N
CZ-4B R/B 4.1 03:27:34 10° NNE 03:31:30 39° E 03:31:40 39° ESE
Lacrosse 5 rocket 3.7 03:31:19 10° N 03:35:08 26° NE 03:39:00 10° ESE
CZ-4B DEB 4.5 03:32:37 10° NNE 03:38:04 64° ESE 03:39:39 45° SSE
Cosmos 2112 Rocket 3.9 03:38:17 10° NNW 03:43:28 86° ENE 03:44:56 49° SSE
PAYLOAD B 4.1 03:39:27 10° NNE 03:44:58 88° WNW 03:46:07 59° SSW
ADEOS II 4.4 03:42:04 10° NE 03:45:48 20° E 03:49:31 10° SE
GOES 2 Rocket 4.3 03:47:20 29° NNW 03:47:52 30° NNW 03:51:37 10° NE
NOSS 3-1 (A) 3.8 03:49:51 31° S 03:52:18 52° ESE 03:58:03 10° NE
Cosmos 2341 Rocket 4.0 03:49:30 29° S 03:52:52 81° E 03:59:11 10° N
Okean 1-7 3.2 03:48:53 10° N 03:52:32 58° NW 03:52:32 58° NW
Coronas F rocket 3.6 03:55:04 24° E 03:55:04 24° E 03:57:04 10° NE
FUSE 4.2 03:55:19 47° WNW 03:56:37 63° NNW 04:01:57 10° ENE
Cosmos 389 Rocket 4.3 03:55:47 10° NNE 03:59:08 33° E 04:02:28 10° SSE
Cosmos 1340 Rocket 3.4 03:57:50 37° SSE 03:59:09 56° E 04:03:05 10° NNE
Okean O Rocket 2.4 03:56:43 10° N 04:00:08 36° NW 04:00:08 36° NW
Meteor 2-3 Rocket 4.1 04:01:10 42° W 04:01:37 43° W 04:07:04 10° NNW
Cosmos 962 Rocket 4.4 03:58:09 28° S 04:01:45 85° W 04:08:03 10° N
Resurs 1-4 Rocket 3.8 04:00:02 10° NNW 04:02:31 17° WNW 04:02:31 17° WNW
GPS 2-04 Rocket1 2.7 04:04:08 56° ESE 04:04:08 56° ESE 04:07:16 10° ENE
Centaur D-1AR AC-48 3.2 03:47:14 10° W 04:06:04 69° N 04:10:29 10° E
DELTA 2 R/B (1) 4.0 04:05:43 36° W 04:07:28 49° NW 04:12:52 10° NE
SL-16 R/B 3.6 04:02:50 10° NW 04:05:18 22° WNW 04:05:18 22° WNW
Orbus 21S 4.3 03:55:23 22° WSW 04:08:41 74° NNW 04:12:59 10° ENE
Cosmos 2154 Rocket 4.2 04:08:06 35° SW 04:10:25 51° W 04:16:33 10° N
GP-B 3.9 04:07:10 10° NNE 04:11:30 51° E 04:15:47 10° SSE
Cosmos 304 Rocket 4.2 04:07:37 10° NNW 04:11:51 39° W 04:11:51 39° W
Delta 198 4.0 04:11:28 41° WSW 04:13:00 58° SSW 04:18:46 10° ESE
ATLAS 2AS CENTAUR R/B 4.4 04:10:21 10° SSE 04:16:16 31° ESE 04:22:39 10° NE
SL-8 Rocket 4.1 04:12:21 10° S 04:18:28 74° E 04:24:39 10° N
Cosmos 2322 Rocket 4.2 04:16:20 10° WNW 04:16:53 12° WNW 04:16:53 12° WNW
Nadezhda 3 Rocket 3.9 04:15:25 10° N 04:21:34 85° W 04:27:43 10° S
SL-16 R/B 3.3 04:22:07 27° WSW 04:22:40 27° W 04:27:50 10° NW
CZ-2C R/B 3.8 04:20:50 26° SSW 04:23:00 49° W 04:27:20 10° NNW
Okean-O 2.6 04:22:13 10° N 04:26:36 67° WNW 04:29:21 22° SSW
Cosmos 1892 3.9 04:27:43 26° WNW 04:27:43 26° WNW 04:30:49 10° NNW
Cosmos 1295 Rocket 4.4 04:23:54 13° SSW 04:29:26 70° W 04:35:32 10° N
PSLV R/B 3.5 04:25:18 10° N 04:29:39 86° W 04:33:15 15° SSW
CZ-3A R/B 2.6 04:27:55 27° W 04:29:44 66° SSW 04:41:34 10° ESE
Cosmos 292 Rocket 4.5 04:25:40 10° N 04:30:21 56° ENE 04:34:59 10° SSE
H-2A R/B 2.6 04:20:38 10° WNW 04:30:49 50° N 04:33:35 10° E
Thor Agena Rocket 3.6 04:26:35 10° S 04:31:46 60° WSW 04:36:59 10° NNW
Ariane Rocket 4.4 04:30:05 10° NNE 04:34:46 37° E 04:39:27 10° SSE
Cosmos 1825 3.0 04:31:26 10° S 04:35:08 52° E 04:38:50 10° NNE
Meteor 1-10 Rocket 4.5 04:30:01 10° N 04:35:46 77° E 04:41:38 10° S
Cosmos 1408 3.3 04:34:05 10° S 04:37:38 54° E 04:41:12 10° NNE
Cosmos 2227 Rocket 2.4 04:36:32 19° SW 04:40:30 53° WNW 04:45:59 10° N
Atlas Centaur 2 4.1 04:42:32 14° SW 04:42:32 14° SW 04:45:21 10° S
GENESIS II 4.1 04:38:41 10° NNW 04:42:42 73° WSW 04:46:37 10° SSE
GPS 2-14 Rocket1 2.6 04:43:58 16° W 04:47:05 76° SSW 04:51:09 10° ESE
Cosmos 2360 Rocket 2.8 04:46:16 10° NW 04:51:15 34° WSW 04:56:16 10° SSW
Cosmos 1782 Rocket 3.5 04:48:47 10° S 04:53:09 72° W 04:57:29 10° N
Cosmos 1238 Rocket 3.8 04:47:37 10° N 04:54:02 79° W 04:59:29 10° S
Cosmos 1125 Rocket 4.0 04:49:42 13° SW 04:54:03 42° WNW 04:59:02 10° N
GPS 2-18 Rocket1 4.1 04:51:52 17° WSW 04:54:11 30° SSW 04:57:44 10° SE
NATO 3D Rocket 4.4 04:46:39 15° WSW 04:54:12 77° SSE 05:00:21 10° E
Okean 2 Rocket 3.0 04:50:25 10° S 04:54:50 85° W 04:59:18 10° N
Ariane H10-3 3.3 04:54:51 10° SSW 04:56:14 12° S 04:57:46 10° SE
NOSS 3-1 (C) 4.5 04:53:41 14° WSW 04:57:25 26° WNW 05:02:21 10° N
ARGOS Delta rocket 3.9 04:52:44 10° N 04:57:34 82° W 05:02:42 10° SSW
ATLAS CENTAUR R/B 2.2 04:54:37 10° NNW 04:58:51 55° ENE 05:02:44 10° SE
ASTRO E2 3.7 04:57:38 12° W 05:01:05 36° NNW 05:04:48 10° NE
Cosmos 2333 4.3 04:56:24 10° NNW 05:02:04 87° ENE 05:07:48 10° SSE
ISS -1.6 05:03:11 10° NNW 05:06:13 37° NE 05:09:14 10° ESE
Cosmos 2218 Rocket 4.3 05:02:55 10° SSW 05:08:43 44° W 05:14:30 10° NNW
Meteor 2-10 Rocket 4.2 05:07:27 10° NNW 05:12:03 34° W 05:16:48 10° SSW
Cosmos 2297 Rocket 2.8 05:08:38 10° SW 05:13:50 38° WNW 05:19:03 10° N
Lacrosse 5 rocket 2.8 05:10:46 10° WNW 05:14:15 21° WSW 05:17:45 10° SSW
Iridium 4 Rocket 3.7 05:10:56 10° NNW 05:14:40 33° W 05:18:25 10° SSW
Radarsat Rocket 4.2 05:13:28 10° N 05:19:28 71° WNW 05:26:07 10° SSW
ADEOS Rocket 2.9 05:14:41 10° N 05:20:26 63° WNW 05:25:51 10° SSW
